User: anonymous   Login
Location: Unspecified
(0.0000°N, 0.0000°E)
Time: 00:00:17
(UTC+00:00)
Language:

GONETS M03 - Orbit

View from above orbital plane
View from above orbital plane
View from above satellite
View from above satellite

Ground track
Ground track

The orbit data is extracted from the following two-line orbital elements,

1 38734U 12041B   17172.70772234 +.00000024 +00000-0 +10000-3 0  9993
2 38734 082.4741 320.4821 0016417 046.4159 313.8278 12.44790430222328
Epoch (UTC): 21 June 2017 16:59:07
Eccentricity: 0.0016417
inclination: 82.4741°
perigee height: 1473 km
apogee height: 1499 km
right ascension of ascending node: 320.4821°
argument of perigee: 46.4159°
revolutions per day: 12.44790430
mean anomaly at epoch: 313.8278°
orbit number at epoch: 22232

The dashed part of the orbit path shows where the satellite is in the earth's shadow,  

DLR